Content
SEND FEEDBACK

Daily
Averages
Monthly
Summary
United States of America

WILMINGTON, NORTH CAROLINA


Home > North America > United States > North Carolina
Elevation: 72 feet     Latitude: 34 16N     Longitude: 077 54W

WEATHER
 
SELECT A DAY
Number of Records: 208,995;   Date Range: 1/1/95 - 8/30/14
 
SHARE

PRINT THIS DATA

[ ← Previous Day ]
WEATHER ALMANAC - JUNE 29, 2013
[ Next Day → ]
[ °C ]   °F
We're sorry. There is no daily almanac available for Wilmington, North Carolina on June 29, 2013.
WEATHER BY HOUR - JUNE 29, 2013
[ °C ]   °F
Local TimeTemperatureDewpointHumidityBarometerVisibilityWind DirectionWind SpeedGust SpeedPrecipitationEventsConditions
12:53 AM79.0 °F75.0 °F88 %29.68 in10.0 miSSW (200°)13.8 mphPartly Cloudy
1:53 AM79.0 °F75.0 °F88 %29.68 in10.0 miSSW (200°)12.7 mph20.7 mphScattered Clouds
2:53 AM79.0 °F73.9 °F84 %29.65 in10.0 miSSW (200°)12.7 mphClear
3:34 AM78.8 °F73.4 °F83 %29.65 in10.0 miSSW (200°)17.3 mph24.2 mphMostly Cloudy
3:51 AM78.8 °F73.4 °F83 %29.66 in10.0 miSSW (200°)11.5 mph20.7 mphOvercast
3:53 AM79.0 °F73.9 °F84 %29.66 in10.0 miSSW (200°)15.0 mph21.9 mphOvercast
4:30 AM78.8 °F73.4 °F83 %29.66 in10.0 miSSW (210°)17.3 mph23.0 mphPartly Cloudy
4:53 AM79.0 °F73.0 °F82 %29.68 in10.0 miSSW (210°)9.2 mph21.9 mphMostly Cloudy
5:53 AM78.1 °F73.0 °F84 %29.69 in10.0 miSSW (210°)12.7 mph20.7 mphMostly Cloudy
6:03 AM78.8 °F73.4 °F83 %29.69 in10.0 miSSW (210°)10.4 mph20.7 mphPartly Cloudy
6:53 AM79.0 °F73.0 °F82 %29.69 in10.0 miSSW (210°)11.5 mphClear
7:53 AM80.1 °F73.0 °F79 %29.68 in10.0 miSW (220°)11.5 mphClear
8:53 AM80.1 °F72.0 °F76 %29.71 in10.0 miSW (220°)9.2 mph19.6 mphClear
9:53 AM81.0 °F71.1 °F72 %29.72 in10.0 miWSW (250°)13.8 mph20.7 mphPartly Cloudy
10:53 AM78.1 °F71.1 °F79 %29.71 in10.0 miWSW (240°)9.2 mph0.00 inScattered Clouds
11:53 AM79.0 °F72.0 °F79 %29.73 in10.0 miSSW (210°)8.1 mph0.00 inMostly Cloudy
12:53 PM80.1 °F72.0 °F76 %29.73 in10.0 miSSW (200°)12.7 mphClear
1:53 PM82.0 °F72.0 °F71 %29.73 in10.0 miSSW (210°)13.8 mph24.2 mphPartly Cloudy
2:53 PM82.9 °F73.0 °F72 %29.73 in10.0 miSSW (200°)12.7 mphMostly Cloudy
3:11 PM82.4 °F73.4 °F74 %29.72 in10.0 miSSW (200°)16.1 mph26.5 mphMostly Cloudy
3:20 PM82.4 °F71.6 °F70 %29.72 in10.0 miSSW (200°)17.3 mph24.2 mphScattered Clouds
3:53 PM82.9 °F73.0 °F72 %29.72 in10.0 miSSW (200°)18.4 mph25.3 mphOvercast
4:17 PM82.4 °F73.4 °F74 %29.72 in10.0 miSouth (190°)18.4 mph26.5 mphMostly Cloudy
4:53 PM82.0 °F73.0 °F74 %29.72 in10.0 miSouth (190°)13.8 mph28.8 mphMostly Cloudy
5:14 PM80.6 °F73.4 °F79 %29.72 in10.0 miSouth (190°)15.0 mph25.3 mphScattered Clouds
5:39 PM80.6 °F73.4 °F79 %29.73 in10.0 miSSW (200°)13.8 mph24.2 mphThunderstormThunderstorm
5:53 PM80.1 °F73.0 °F79 %29.73 in10.0 miSouth (190°)16.1 mph21.9 mphThunderstormThunderstorm
6:02 PM80.6 °F73.4 °F79 %29.72 in10.0 miSouth (190°)16.1 mphThunderstormThunderstorm
6:04 PM80.6 °F73.4 °F79 %29.72 in10.0 miSSW (200°)17.3 mph23.0 mphMostly Cloudy
6:15 PM78.8 °F73.4 °F83 %29.72 inSouth (190°)11.5 mph0.00 inRainLight Rain
6:53 PM75.9 °F70.0 °F82 %29.73 in10.0 miSW (220°)13.8 mph0.00 inPartly Cloudy
7:53 PM77.0 °F73.0 °F88 %29.74 in10.0 miSouth (190°)9.2 mphPartly Cloudy
8:07 PM77.0 °F73.4 °F89 %29.75 in10.0 miSouth (190°)10.4 mph19.6 mphMostly Cloudy
8:48 PM78.8 °F73.4 °F83 %29.75 in10.0 miSSW (200°)12.7 mph20.7 mph0.00 inScattered Clouds
8:53 PM77.0 °F73.0 °F88 %29.75 in10.0 miSSW (210°)10.4 mph20.7 mph0.00 inRainLight Rain
9:53 PM73.9 °F71.1 °F91 %29.77 in10.0 miSouth (190°)8.1 mph0.01 inRainLight Rain
10:53 PM77.0 °F73.9 °F90 %29.79 in10.0 miSouth (190°)10.4 mph0.00 inPartly Cloudy
11:11 PM77.0 °F73.4 °F89 %29.79 in10.0 miSouth (180°)10.4 mph0.00 inRainLight Rain
11:21 PM77.0 °F73.4 °F89 %29.80 in9.0 miSouth (190°)13.8 mph24.2 mph0.00 inRainLight Rain
11:53 PM75.9 °F73.0 °F91 %29.81 in10.0 miSouth (180°)15.0 mph23.0 mph0.03 inThunderstormOvercast
Hourly data recorded from KILM, located miles away from Wilmington, North Carolina







STORIES FROM OUR PARTNERS